Edward G. Pitka Sr Airport Galena US
ICAO: PAGA
IATA:
Category: Medium
Scheduled Services:

Elevation: 153 ft
TransAlt. 18000 ft.

Airport Communications:
AWOS 3:132.525
ANCHORAGE CNTR:127
CTAF:123
FAIRBANKS RDO:122.2
GALENA OPS:39.12
PMSV METRO:134.5

PAGA Zoom In..

If you have problems with the map follow the link
https://www.worldairports.se/pages/airport.php?
ICAO=PAGA

Runways:

(A) RW 06 length 2786 ft width 80 ft
---- / hdg 73

(B) RW 07 length 7249 ft width 150 ft
---- / hdg 72

(C) RW 24 length 2786 ft width 80 ft
---- / hdg 253

(D) RW 25 length 7249 ft width 150 ft
ILS 109.50 / hdg 252

Location; PAGA
Day. 14 / Time. 18.56 Zulu
* Altimeter: 29.64
* Temperature: -21° c. 5.8°f.
* Wind from: 000° Speed 00 kn.
Dewpoint: -23° c.
Visibility: 10 Statute Miles.
Clouds: Clear (automated report).

PAGA 141856Z AUTO 00000KT 10SM CLR M21/M23 A2964 RMK AO2 SLP043 T12061228 FZRANO


Wind - Calm.

 
 
jpsmedia worldairports.se 2019   terms of use